Track GLOBALSTAR M091 now! 10-day predictions GLOBALSTAR M091 is classified as:
1 37741U 11033C 26228.00909046 -.00000105 00000-0 -90017-5 0 9998 2 37741 52.0000 59.7911 0000971 77.2335 86.9735 12.62264517696833